Regional Weather Roundup
Issued by NWS

Home | Current Version | Previous Version | Graphics & Text | Print | Product List | Glossary On
Versions: 1 2 3 4 5 6 7 8 9 10 11 12 13 14 15 16 17 18 19 20 21 22 23 24 25 26 27 28 29 30 31 32 33 34 35 36 37 38 39 40 41 42 43 44 45 46 47 48 49 50
901
ASUS43 KDMX 192106
RWRIA

WEATHER ROUNDUP FOR IOWA
NATIONAL WEATHER SERVICE DES MOINES IA
400 PM CDT THU OCT 19 2017

NOTE: "FAIR" INDICATES FEW OR NO CLOUDS BELOW 12,000 FEET WITH NO
SIGNIFICANT WEATHER AND/OR OBSTRUCTIONS TO VISIBILITY.

* - THESE STATIONS ARE NOT NWS STATIONS...THUS NOT UNDER NWS
QUALITY CONTROL.  THEY ALSO DO NOT REPORT WEATHER SUCH
AS PRECIPITATION OR FOG.

IAZ001>003-012>014-020>022-031>034-043>046-192200-
   NORTHWEST IOWA

CITY           SKY/WX    TMP DP  RH WIND       PRES   REMARKS
CARROLL *      MOSUNNY   93  73  52 S14G20    30.00F HAZE    HX 102
CHEROKEE *     SUNNY     74  49  41 S10       29.98S
DENISON *      SUNNY     77  52  41 S9G20     30.00F
LE MARS *      SUNNY     75  50  41 S14G21    29.95F
ORANGE CITY *  SUNNY     75  48  38 S14       29.96F
SHELDON *      SUNNY     75  46  35 S13G22    29.95F
SIOUX CITY     SUNNY     76  52  43 S12G21    29.96F
SPENCER        SUNNY     75  44  33 S17G25    29.98F
STORM LAKE *   SUNNY     75  46  35 S15G23    29.99F
$$

IAZ055>058-069>071-079>083-090>094-192200-
   SOUTHWEST IOWA

CITY           SKY/WX    TMP DP  RH WIND       PRES   REMARKS
ATLANTIC *     SUNNY     77  54  44 S14       30.00F
AUDUBON *      SUNNY     75  54  46 S8G16     30.02F
CLARINDA *     SUNNY     79  54  41 S12       30.03F
COUNCIL BLFS * SUNNY     77  55  47 S8G17     29.99F
CRESTON *      SUNNY     75  55  50 S12G18    30.05S
HARLAN  *      SUNNY     77  54  44 S14G20    30.03F
LAMONI         SUNNY     75  54  47 S10       30.06S
RED OAK *      SUNNY     79  54  41 S14       30.01S
SHENANDOAH *   SUNNY     81  52  36 S10G21    30.01S HX  80
$$

IAZ047>049-059>061-072>074-084-192200-
   CENTRAL IOWA

CITY           SKY/WX    TMP DP  RH WIND       PRES   REMARKS
AMES           SUNNY     74  51  44 S13       30.03F
ANKENY *       SUNNY     75  54  46 SE8G16    30.04F
BOONE *        SUNNY     75  48  38 S17       30.02F
CHARITON *     SUNNY     77  54  44 S12       30.05F
DES MOINES     MOSUNNY   75  53  46 SE14      30.04F
KNOXVILLE *    SUNNY     75  54  46 SE8G15    30.04F
MARSHALLTOWN   SUNNY     74  46  36 S13       30.04F
NEWTON *       SUNNY     75  50  41 S14G21    30.05F
PELLA *        SUNNY     76  51  42 SE8       30.07F
PERRY *          N/A     77  46  33 SE9G17    30.02F
$$

IAZ004>006-015-016-023>025-035-036-192200-
   NORTH CENTRAL IOWA

CITY           SKY/WX    TMP DP  RH WIND       PRES   REMARKS
ALGONA *       SUNNY     73  43  33 S16G23    30.01F
CLARION *      CLOUDY    75  43  31 S18       30.02F
ESTHERVILLE    SUNNY     72  43  35 S18G25    29.99
FORT DODGE *   SUNNY     74  47  38 S9G17     30.02F
MASON CITY     SUNNY     71  37  28 S17       30.05F
FOREST CITY *    N/A     72  37  28 S18       30.03F
WEBSTER CITY * SUNNY     75  45  33 SE13G20   30.01F
IOWA FALLS *     N/A     74  43  32 SE12G20   30.06F
$$

IAZ007>011-017>019-026>030-037>042-050>054-066-192200-
   NORTHEAST IOWA

CITY           SKY/WX    TMP DP  RH WIND       PRES   REMARKS
CEDAR RAPIDS   SUNNY     71  42  35 SE10      30.08F
CHARLES CITY * SUNNY     70  32  24 S10       30.07S
CLINTON *      SUNNY     73  36  25 SE10      30.13F
DECORAH *      CLOUDY    72  32  23 S10G17    30.07S
DUBUQUE        SUNNY     69  34  27 S8        30.12F
MONTICELLO *   SUNNY     72  32  23 S10       30.10F
OELWEIN *      SUNNY     72  32  23 S16       30.09S
WATERLOO       CLOUDY    71  35  26 SE12      30.06F
$$

IAZ064-065-067-068-078-192200-
   EAST CENTRAL IOWA

CITY           SKY/WX    TMP DP  RH WIND       PRES   REMARKS
DAVENPORT      SUNNY     73  40  30 SE12      30.13F
IOWA CITY      SUNNY     76  49  38 S12       30.10F
MUSCATINE *    SUNNY     75  50  41 S10       30.10S
QUAD CITIES    SUNNY     76  46  34 SE9       30.11S
$$

IAZ062-063-075>077-085>089-095>099-192200-
   SOUTHEAST IOWA

CITY           SKY/WX    TMP DP  RH WIND       PRES   REMARKS
BURLINGTON     SUNNY     76  55  48 S6        30.10F
FAIRFIELD *    SUNNY     75  52  43 SE8G17    30.08S
FORT MADISON * SUNNY     77  54  44 S7        30.11S
KEOKUK *       SUNNY     77  54  44 S8        30.09F
OSKALOOSA *      N/A     75  53  46 S10       30.07F
OTTUMWA        SUNNY     75  55  49 SE12      30.07F
WASHINGTON *   SUNNY     77  52  41 SE12      30.10S
$$

ABBREVIATIONS USED IN REMARKS
   TC - TEMPERATURES IN CELSIUS
  WCI - WIND CHILL INDEX
   HX - HEAT INDEX
  VSB - VISIBILITY
$$





USA.gov is the U.S. government's official web portal to all federal, state and local government web resources and services.